Regional Weather Roundup
Issued by NWS

Home | Current Version | Previous Version | Graphics & Text | Print | Product List | Glossary On
Versions: 1 2 3 4 5 6 7 8 9 10 11 12 13 14 15 16 17 18 19 20 21 22 23 24 25 26 27 28 29 30 31 32 33 34 35 36 37 38 39 40 41 42 43 44 45 46 47 48 49 50
000
ASUS43 KDTX 051401
RWRMI
MICHIGAN HOURLY REGIONAL WEATHER ROUNDUP
NATIONAL WEATHER SERVICE DETROIT/PONTIAC MI
1000 AM EDT SUN JUL 05 2015

NOTE: "FAIR" INDICATES FEW OR NO CLOUDS BELOW 12,000 FEET WITH NO
SIGNIFICANT WEATHER AND/OR OBSTRUCTION TO VISIBILITY.

MIZ047>049-052>055-059>063-066>070-074>076-081>083-051500-
SOUTHEAST LOWER MICHIGAN

CITY           SKY/WX    TMP DP  RH WIND       PRES   REMARKS
ADRIAN         SUNNY     72  62  71 CALM      30.14R
ALMA           SUNNY     71  63  75 CALM      30.13S
ANN ARBOR      SUNNY     73  60  63 CALM      30.14R
BAD AXE        SUNNY     71  64  77 W8        30.13R
CARO           SUNNY     72  64  76 SW5       30.12S
DETROIT CITY   SUNNY     73  57  57 SW7       30.14R
DETROIT        SUNNY     73  59  61 S6        30.14R
FLINT          SUNNY     73  62  68 VRB3      30.13R
GROSSE ILE     SUNNY     73  61  64 CALM      30.13R
HILLSDALE      SUNNY     74  61  65 S5        30.14S
HOWELL         SUNNY     72  60  66 SW3       30.14R

CITY           SKY/WX    TMP DP  RH WIND       PRES   REMARKS
JACKSON        SUNNY     73  61  65 SW5       30.14R
LAMBERTVILLE   SUNNY     74  60  61 CALM      30.14R
LANSING        SUNNY     72  60  66 SW7       30.14R
LAPEER         FAIR      73  60  65 CALM      30.14S
MASON          SUNNY     69  59  70 CALM      30.14R
MONROE         SUNNY     72  60  65 CALM      30.13R
MT. CLEMENS    SUNNY     75  59  57 CALM      30.11R
PONTIAC        MOSUNNY   72  62  71 CALM      30.13R HAZE
PORT HOPE        N/A     67  62  84 NW3       30.11R
PORT HURON     SUNNY     72  63  73 SW5       30.13S
TRI CITIES     SUNNY     71  61  70 W6        30.13R
MIDLAND        FAIR      69  58  68 CALM      30.12S
TROY           SUNNY     73  58  59 SW3       30.15R
SAGINAW HB     SUNNY     70  63  78 SW6       30.12S
$$
MIZ043>046-050>051-056>058-064>065-071>073-077>080-051500-
SOUTHWEST LOWER MICHIGAN

CITY           SKY/WX    TMP DP  RH WIND       PRES   REMARKS
BATTLE CREEK   SUNNY     73  62  68 SW5       30.14R
BENTON HARBOR  SUNNY     74  62  66 SW5       30.11R
BIG RAPIDS     SUNNY     67  60  77 SE3       30.12S
COLDWATER      SUNNY     73  61  65 CALM      30.14R
FREMONT        FAIR      69  60  74 S5        30.11S
HOLLAND        MOSUNNY   71  61  70 CALM      30.12S
GRAND RAPIDS   SUNNY     70  61  73 SW6       30.12S
IONIA          FAIR      70  61  73 S3        30.12S
KALAMAZOO      SUNNY     73  62  68 S5        30.13R
LUDINGTON      SUNNY     72  61  67 SE5       30.10S
MARSHALL       SUNNY     73  60  64 SW5       30.14R
MOUNT PLEASANT SUNNY     72  63  72 CALM      30.11F
MUSKEGON       SUNNY     72  59  63 CALM      30.11S
SOUTH HAVEN    SUNNY     73  62  68 CALM      30.11S
$$
MIZ016>042-051500-
NORTHERN LOWER MICHIGAN

CITY           SKY/WX    TMP DP  RH WIND       PRES   REMARKS
ALPENA         SUNNY     69  58  67 SW3       30.12S
BEAVER ISLAND  MOSUNNY   70  58  63 S3        30.07S
BELLAIRE       SUNNY     70  59  68 SW3       30.09S
CADILLAC       SUNNY     69  58  69 S7        30.11F
CHARLEVOIX     SUNNY     69  61  75 SE3       30.12R
FRANKFORT      SUNNY     75  56  51 S8        30.08S
GAYLORD        SUNNY     69  60  73 SW7       30.12S
GRAYLING       SUNNY     69  59  70 CALM      30.13S
HARBOR SPRINGS SUNNY     67  58  74 CALM      30.10R
HOUGHTON LAKE  SUNNY     68  57  68 SW5       30.13S
MANISTEE       SUNNY     66  59  77 S3        30.10F
OSCODA         SUNNY     69  58  68 E3        30.12R
PELLSTON       SUNNY     68  60  75 CALM      30.10S
ROGERS CITY    SUNNY     70  60  70 CALM      30.11F
TRAVERSE CITY  MOSUNNY   73  60  63 S6        30.07S
$$
MIZ007>008-015-051500-
EASTERN UPPER MICHIGAN

CITY           SKY/WX    TMP DP  RH WIND       PRES   REMARKS
KINROSS        SUNNY     70  59  68 S3        30.08S
MACKINAC ISLAN SUNNY     66  59  76 S3        30.08S
NEWBERRY       MOSUNNY   66  59  77 S9        30.05F
S. S. MARIE    MOSUNNY   64  56  75 E3        30.08S
$$
MIZ004>006-011>014-085-051500-
CENTRAL UPPER MICHIGAN

CITY           SKY/WX    TMP DP  RH WIND       PRES   REMARKS
MANISTIQUE     MOSUNNY   62  57  84 S10       30.04F
ESCANABA       SUNNY     70  63  78 S7        30.02S
MENOMINEE      SUNNY     70  63  78 SW7       30.03S
SAWYER-GWINN   SUNNY     66  61  82 S8        30.01F
$$
MIZ001>003-009>011-084-051500-
WESTERN UPPER MICHIGAN

CITY           SKY/WX    TMP DP  RH WIND       PRES   REMARKS
IRON MOUNTAIN  SUNNY     70  63  78 SE6       30.00F HAZE
HOUGHTON       SUNNY     70  63  78 S6        29.95R
COPPER HARBOR    N/A     71  62  73 SW9G16    29.91F
IRONWOOD       PTSUNNY   70  63  78 SW12G17   29.94S
$$

ABBREVIATIONS USED IN REMARKS
   TC - TEMPERATURE IN CELSIUS
  WCI - WIND CHILL INDEX
   HX - HEAT INDEX
  VSB - VISIBILITY




USA.gov is the U.S. government's official web portal to all federal, state and local government web resources and services.